Regional Weather Roundup
Issued by NWS

Home | Current Version | Previous Version | Graphics & Text | Print | Product List | Glossary On
Versions: 1 2 3 4 5 6 7 8 9 10 11 12 13 14 15 16 17 18 19 20 21 22 23 24 25 26 27
000
ASUS45 KSLC 231110
RWRUT

UTAH REGIONAL WEATHER ROUNDUP
NATIONAL WEATHER SERVICE SALT LAKE CITY UT
400 AM MST THU FEB 23 2017

UTZ001>011-023>025-231200-

NORTHERN UTAH

CITY           SKY/WX    TMP DP  RH WIND       PRES   REMARKS
BRIGHAM CITY     N/A     32  25  74 SW9       29.70S WCI  24
HILL AFB       FLURRIES  28  26  91 CALM      29.68S
LOGAN          LGT SNOW  30  26  85 S5        29.67S FOG     WCI  25
OGDEN          CLOUDY    30  24  78 NW5       29.68F WCI  25
SALT LAKE CITY SNOW      29  28  96 S6G18     29.70S VSB 1/2 WCI  23
TOOELE VALLEY  MOCLDY    27  23  86 S10       29.71S WCI  17
WENDOVER       CLOUDY    30  18  59 NW15      29.71F WCI  19
HEBER CITY     LGT SNOW  25  21  86 CALM      29.63F
WEST JORDAN    CLOUDY    31  31 100 CALM      29.70S

$$

UTZ011>015-024>027-231200-

CENTRAL/NORTHEAST UTAH

CITY           SKY/WX    TMP DP  RH WIND       PRES   REMARKS
PROVO AIRPORT  CLOUDY    26  24  92 E3        29.72S
MOAB/CANYONLAN CLOUDY    33  24  69 SW7       29.59F WCI  27
DELTA          PTCLDY    21  19  93 S7        29.73R WCI  13
PRICE          CLOUDY    28  11  48 NW9       29.57F WCI  19
ROOSEVELT      CLOUDY    30  25  80 W5        29.57F WCI  25
VERNAL         CLOUDY    28  25  88 SW8       29.53F WCI  20

$$

UTZ013>016-019>022-027-231200-

SOUTHERN UTAH

CITY           SKY/WX    TMP DP  RH WIND       PRES   REMARKS
BRYCE CANYON   PTCLDY    16  10  77 W10       29.68R WCI   4
CEDAR CITY     MOCLDY    22  18  85 S5        29.75F WCI  16
MILFORD        MOCLDY    15  13  91 SW10      29.74F WCI   2
ST GEORGE      CLOUDY    36  33  89 SE5       29.84S WCI  32
HANKSVILLE     CLOUDY    36   5  27 W12       29.66F WCI  27
BLANDING       CLOUDY    33  28  84 SW10      29.69R WCI  24

$$

REGIONAL REPORTS     COLORADO/ARIZONA

CITY           SKY/WX    TMP DP  RH WIND       PRES   REMARKS
CRAIG, CO      LGT SNOW  29  25  85 W10       29.48S VSB 3/4 WCI  20
GRAND JUNCTION CLOUDY    37  31  78 NW17G24   29.55S WCI  27
RIFLE, CO      LGT SNOW  34  32  92 W31G39    29.49S FOG     WCI  20
MONTROSE, CO   FLURRIES  36  33  89 W9G17     29.57S WCI  29
CORTEZ, CO     FLURRIES  36  33  89 SW15      29.64F WCI  27
COLORADO CITY  PTSUNNY   32  30  93 CALM      29.82S
PAGE, AZ       CLOUDY    38  16  40 SW9       29.73S WCI  31
GRAND CANYON   LGT SNOW  25  23  92 W8        29.77R FOG     WCI  16
KINGMAN, AZ    CLEAR     37  19  48 SW9       29.85F WCI  30
FLAGSTAFF, AZ  CLEAR     27  15  61 SW10      29.77S WCI  17

$$

REGIONAL REPORTS    NEVADA/IDAHO/WYOMING

CITY           SKY/WX    TMP DP  RH WIND       PRES   REMARKS
LAS VEGAS, NV  PTCLDY    45  29  53 S3        29.85S
ELY, NY        CLOUDY    12   9  87 SE7       29.78F WCI   1
ELKO, NV       CLOUDY    26  19  74 W13       29.81R WCI  15
POCATELLO, ID  LGT SNOW  27  26  96 W14       29.67F FOG     WCI  16
BURLEY, ID     CLOUDY    30  27  88 W10       29.66F WCI  21
FORT BRIDGER,  LGT SNOW  20  20 100 W18       29.60F WCI   5
EVANSTON, WY   LGT SNOW  19  15  84 SW10      29.58F FOG     WCI   7
ROCK SPRINGS,  LGT SNOW  25  22  88 VRB5      29.52F FOG     WCI  19

$$




USA.gov is the U.S. government's official web portal to all federal, state and local government web resources and services.